Time,TemperatureF,DewpointF,PressureIn,WindDirection,WindDirectionDegrees,WindSpeedMPH,WindSpeedGustMPH,Humidity,HourlyPrecipIn,Conditions,Clouds,dailyrainin,SoftwareType,DateUTC
2013-04-20 00:03:00,22.0,18.0,29.71,NW,305,0.0,0.0,85,0.00,,,0.78,,2013-04-20 04:03:00,
2013-04-20 00:12:00,22.0,18.0,29.71,NW,305,0.0,0.0,85,0.00,,,0.78,,2013-04-20 04:12:00,
2013-04-20 00:23:00,21.0,17.0,29.72,WNW,297,0.0,0.0,84,0.00,,,0.78,,2013-04-20 04:23:00,
2013-04-20 00:32:00,21.0,17.0,29.73,NW,315,0.0,0.0,84,0.00,,,0.78,,2013-04-20 04:32:00,
2013-04-20 00:42:00,21.0,17.0,29.73,NW,315,0.0,0.0,84,0.00,,,0.78,,2013-04-20 04:42:00,
2013-04-20 00:52:00,21.0,17.0,29.75,NNW,329,0.0,0.0,84,0.00,,,0.78,,2013-04-20 04:52:00,
2013-04-20 01:02:00,21.0,17.0,29.76,WNW,302,0.0,0.0,84,0.00,,,0.78,,2013-04-20 05:02:00,
2013-04-20 01:12:00,21.0,17.0,29.76,WNW,302,0.0,0.0,84,0.00,,,0.78,,2013-04-20 05:12:00,
2013-04-20 01:22:00,21.0,17.0,29.76,WNW,282,0.0,0.0,84,0.00,,,0.78,,2013-04-20 05:22:00,
2013-04-20 01:32:00,21.0,17.0,29.77,NNW,333,0.0,0.0,84,0.00,,,0.78,,2013-04-20 05:32:00,
2013-04-20 01:42:00,21.0,17.0,29.77,NNW,333,0.0,0.0,84,0.00,,,0.78,,2013-04-20 05:42:00,
2013-04-20 01:52:00,21.0,17.0,29.77,NW,310,0.0,0.0,84,0.00,,,0.78,,2013-04-20 05:52:00,
2013-04-20 02:02:00,21.0,17.0,29.78,WNW,294,0.0,0.0,84,0.00,,,0.78,,2013-04-20 06:02:00,
2013-04-20 02:12:00,21.0,17.0,29.78,WNW,294,0.0,0.0,84,0.00,,,0.78,,2013-04-20 06:12:00,
2013-04-20 02:21:00,21.0,17.0,29.79,NW,313,0.0,0.0,83,0.00,,,0.78,,2013-04-20 06:21:00,
2013-04-20 02:32:00,21.0,16.0,29.80,WNW,292,0.0,0.0,82,0.00,,,0.78,,2013-04-20 06:32:00,
2013-04-20 02:42:00,21.0,16.0,29.80,WNW,292,0.0,0.0,82,0.00,,,0.78,,2013-04-20 06:42:00,
2013-04-20 02:52:00,21.0,17.0,29.80,NNW,333,0.0,0.0,83,0.00,,,0.78,,2013-04-20 06:52:00,
2013-04-20 03:01:00,21.0,17.0,29.81,NNW,338,0.0,0.0,83,0.00,,,0.78,,2013-04-20 07:01:00,
2013-04-20 03:11:00,21.0,17.0,29.81,NNW,338,0.0,0.0,83,0.00,,,0.78,,2013-04-20 07:11:00,
2013-04-20 03:21:00,20.0,16.0,29.82,NW,321,0.0,0.0,83,0.00,,,0.78,,2013-04-20 07:21:00,
2013-04-20 03:32:00,20.0,15.0,29.83,NW,316,0.0,0.0,82,0.00,,,0.78,,2013-04-20 07:32:00,
2013-04-20 03:42:00,20.0,16.0,29.83,NW,310,0.0,0.0,83,0.00,,,0.78,,2013-04-20 07:42:00,
2013-04-20 03:52:00,20.0,16.0,29.83,NW,310,0.0,0.0,83,0.00,,,0.78,,2013-04-20 07:52:00,
2013-04-20 04:01:00,20.0,16.0,29.83,NW,315,0.0,0.0,83,0.00,,,0.78,,2013-04-20 08:01:00,
2013-04-20 04:11:00,20.0,16.0,29.83,NW,315,0.0,0.0,83,0.00,,,0.78,,2013-04-20 08:11:00,
2013-04-20 04:21:00,20.0,16.0,29.84,West,271,0.0,0.0,83,0.00,,,0.78,,2013-04-20 08:21:00,
2013-04-20 04:31:00,20.0,16.0,29.84,WNW,291,0.0,0.0,83,0.00,,,0.78,,2013-04-20 08:31:00,
2013-04-20 04:42:00,20.0,16.0,29.84,WNW,291,0.0,0.0,83,0.00,,,0.78,,2013-04-20 08:42:00,
2013-04-20 04:52:00,20.0,16.0,29.85,West,265,0.0,0.0,83,0.00,,,0.78,,2013-04-20 08:52:00,
2013-04-20 05:01:00,20.0,16.0,29.86,West,270,0.0,0.0,83,0.00,,,0.78,,2013-04-20 09:01:00,
2013-04-20 05:12:00,20.0,16.0,29.86,West,270,0.0,0.0,83,0.00,,,0.78,,2013-04-20 09:12:00,
2013-04-20 05:21:00,20.0,16.0,29.87,WNW,292,0.0,0.0,83,0.00,,,0.78,,2013-04-20 09:21:00,
2013-04-20 05:33:00,20.0,15.0,29.87,NW,313,0.0,0.0,82,0.00,,,0.78,,2013-04-20 09:33:00,
2013-04-20 05:43:00,20.0,15.0,29.87,NW,313,0.0,0.0,82,0.00,,,0.78,,2013-04-20 09:43:00,
2013-04-20 05:53:00,20.0,15.0,29.88,WNW,292,0.0,0.0,82,0.00,,,0.78,,2013-04-20 09:53:00,
2013-04-20 06:02:00,20.0,15.0,29.88,West,270,0.0,0.0,82,0.00,,,0.78,,2013-04-20 10:02:00,
2013-04-20 06:12:00,20.0,15.0,29.88,West,270,0.0,0.0,82,0.00,,,0.78,,2013-04-20 10:12:00,
2013-04-20 06:23:00,20.0,15.0,29.89,WNW,292,0.0,0.0,81,0.00,,,0.78,,2013-04-20 10:23:00,
2013-04-20 06:33:00,20.0,15.0,29.90,WNW,292,0.0,0.0,81,0.00,,,0.78,,2013-04-20 10:33:00,
2013-04-20 06:42:00,20.0,15.0,29.90,WNW,292,0.0,0.0,81,0.00,,,0.78,,2013-04-20 10:42:00,
2013-04-20 06:53:00,20.0,15.0,29.90,West,275,0.0,0.0,81,0.00,,,0.78,,2013-04-20 10:53:00,
2013-04-20 07:02:00,19.0,14.0,29.91,NNW,336,0.0,0.0,80,0.00,,,0.78,,2013-04-20 11:02:00,
2013-04-20 07:12:00,19.0,14.0,29.92,WNW,292,0.0,0.0,79,0.00,,,0.78,,2013-04-20 11:12:00,
2013-04-20 07:23:00,19.0,14.0,29.92,WNW,292,0.0,0.0,79,0.00,,,0.78,,2013-04-20 11:23:00,
2013-04-20 07:32:00,19.0,14.0,29.93,WNW,292,0.0,0.0,79,0.00,,,0.78,,2013-04-20 11:32:00,
2013-04-20 07:42:00,19.0,14.0,29.93,WNW,292,0.0,0.0,79,0.00,,,0.78,,2013-04-20 11:42:00,
2013-04-20 07:53:00,19.0,14.0,29.93,WNW,292,0.0,0.0,79,0.00,,,0.78,,2013-04-20 11:53:00,
2013-04-20 08:02:00,19.0,14.0,29.95,WNW,292,0.0,0.0,80,0.00,,,0.78,,2013-04-20 12:02:00,
2013-04-20 08:11:00,19.0,14.0,29.95,WNW,292,0.0,0.0,80,0.00,,,0.78,,2013-04-20 12:11:00,
2013-04-20 08:22:00,20.0,15.0,29.96,NNW,335,0.0,0.0,79,0.00,,,0.78,,2013-04-20 12:22:00,
2013-04-20 08:32:00,20.0,15.0,29.97,WNW,292,0.0,0.0,79,0.00,,,0.78,,2013-04-20 12:32:00,
2013-04-20 08:42:00,20.0,15.0,29.97,WNW,292,0.0,0.0,79,0.00,,,0.78,,2013-04-20 12:42:00,
2013-04-20 08:52:00,21.0,15.0,29.98,NW,315,0.0,0.0,78,0.00,,,0.00,,2013-04-20 12:52:00,
2013-04-20 09:02:00,22.0,16.0,29.99,NW,308,7.0,38.0,77,0.00,,,0.00,,2013-04-20 13:02:00,
2013-04-20 09:11:00,23.0,17.0,30.00,NW,315,0.0,35.0,76,0.00,,,0.00,,2013-04-20 13:11:00,
2013-04-20 09:21:00,23.0,17.0,30.00,NW,315,0.0,35.0,76,0.00,,,0.00,,2013-04-20 13:21:00,
2013-04-20 09:32:00,24.0,16.0,30.01,NW,315,0.0,0.0,72,0.00,,,0.00,,2013-04-20 13:32:00,
2013-04-20 09:42:00,25.0,17.0,30.01,NW,315,0.0,0.0,71,0.00,,,0.00,,2013-04-20 13:42:00,
2013-04-20 09:52:00,25.0,17.0,30.01,NW,315,0.0,0.0,71,0.00,,,0.00,,2013-04-20 13:52:00,
2013-04-20 10:02:00,25.0,17.0,30.03,WNW,292,0.0,0.0,70,0.00,,,0.00,,2013-04-20 14:02:00,
2013-04-20 10:11:00,25.0,17.0,30.03,WNW,292,0.0,0.0,70,0.00,,,0.00,,2013-04-20 14:11:00,
2013-04-20 10:21:00,25.0,17.0,30.03,West,270,0.0,0.0,70,0.00,,,0.00,,2013-04-20 14:21:00,
2013-04-20 10:31:00,25.0,16.0,30.04,NW,315,0.0,0.0,68,0.00,,,0.00,,2013-04-20 14:31:00,
2013-04-20 10:42:00,25.0,16.0,30.04,NW,315,0.0,0.0,68,0.00,,,0.00,,2013-04-20 14:42:00,
2013-04-20 10:52:00,26.0,17.0,30.05,WNW,292,0.0,0.0,68,0.00,,,0.00,,2013-04-20 14:52:00,
2013-04-20 11:01:00,27.0,18.0,30.06,NNW,338,0.0,0.0,67,0.00,,,0.00,,2013-04-20 15:01:00,
2013-04-20 11:11:00,27.0,18.0,30.06,NNW,338,0.0,0.0,67,0.00,,,0.00,,2013-04-20 15:11:00,
2013-04-20 11:21:00,28.0,18.0,30.07,NNW,338,0.0,0.0,66,0.00,,,0.00,,2013-04-20 15:21:00,
2013-04-20 11:33:00,28.0,18.0,30.08,NW,315,0.0,0.0,65,0.00,,,0.00,,2013-04-20 15:33:00,
2013-04-20 11:43:00,28.0,18.0,30.08,NW,315,0.0,0.0,65,0.00,,,0.00,,2013-04-20 15:43:00,
2013-04-20 11:53:00,29.0,18.0,30.09,NW,315,0.0,0.0,64,0.00,,,0.00,,2013-04-20 15:53:00,
2013-04-20 12:03:00,30.0,19.0,30.09,NNW,338,0.0,0.0,63,0.00,,,0.00,,2013-04-20 16:03:00,
2013-04-20 12:12:00,30.0,19.0,30.10,NW,315,0.0,0.0,63,0.00,,,0.00,,2013-04-20 16:12:00,
2013-04-20 12:23:00,30.0,19.0,30.10,NW,315,0.0,0.0,63,0.00,,,0.00,,2013-04-20 16:23:00,
2013-04-20 12:32:00,29.0,18.0,30.11,NNW,338,0.0,0.0,63,0.00,,,0.00,,2013-04-20 16:32:00,
2013-04-20 12:42:00,29.0,18.0,30.12,WSW,255,0.0,0.0,64,0.00,,,0.00,,2013-04-20 16:42:00,
2013-04-20 12:53:00,29.0,18.0,30.12,WSW,255,0.0,0.0,64,0.00,,,0.00,,2013-04-20 16:53:00,
2013-04-20 13:02:00,30.0,19.0,30.13,WNW,292,0.0,0.0,64,0.00,,,0.00,,2013-04-20 17:02:00,
2013-04-20 13:12:00,32.0,20.0,30.13,WSW,248,0.0,0.0,61,0.00,,,0.00,,2013-04-20 17:12:00,
2013-04-20 13:23:00,32.0,20.0,30.13,WSW,248,0.0,0.0,61,0.00,,,0.00,,2013-04-20 17:23:00,
2013-04-20 13:33:00,32.0,19.0,30.14,WNW,282,0.0,0.0,58,0.00,,,0.00,,2013-04-20 17:33:00,
2013-04-20 13:42:00,32.0,19.0,30.14,WNW,282,0.0,0.0,58,0.00,,,0.00,,2013-04-20 17:42:00,
2013-04-20 13:52:00,33.0,19.0,30.14,NW,315,0.0,0.0,57,0.00,,,0.00,,2013-04-20 17:52:00,
2013-04-20 14:02:00,32.0,18.0,30.15,WNW,292,0.0,0.0,56,0.00,,,0.00,,2013-04-20 18:02:00,
2013-04-20 14:12:00,32.0,18.0,30.16,WNW,292,0.0,0.0,56,0.00,,,0.00,,2013-04-20 18:12:00,
2013-04-20 14:22:00,32.0,18.0,30.16,WNW,292,0.0,0.0,56,0.00,,,0.00,,2013-04-20 18:22:00,
2013-04-20 14:32:00,32.0,18.0,30.16,NNW,338,1.0,55.0,56,0.00,,,0.00,,2013-04-20 18:32:00,
2013-04-20 14:42:00,32.0,18.0,30.16,NNW,338,1.0,55.0,56,0.00,,,0.00,,2013-04-20 18:42:00,
2013-04-20 14:52:00,32.0,18.0,30.17,NNW,338,1.0,1.0,56,0.00,,,0.00,,2013-04-20 18:52:00,
2013-04-20 15:01:00,32.0,18.0,30.18,NW,315,0.0,1.0,56,0.00,,,0.00,,2013-04-20 19:01:00,
2013-04-20 15:11:00,32.0,18.0,30.19,WSW,248,0.0,0.0,56,0.00,,,0.00,,2013-04-20 19:11:00,
2013-04-20 15:21:00,32.0,18.0,30.19,WSW,248,0.0,0.0,56,0.00,,,0.00,,2013-04-20 19:21:00,
2013-04-20 15:32:00,33.0,19.0,30.19,WNW,292,0.0,1.0,57,0.00,,,0.00,,2013-04-20 19:32:00,
2013-04-20 15:42:00,32.0,18.0,30.20,WNW,292,0.0,0.0,55,0.00,,,0.00,,2013-04-20 19:42:00,
2013-04-20 15:52:00,32.0,18.0,30.20,WNW,292,0.0,0.0,55,0.00,,,0.00,,2013-04-20 19:52:00,
2013-04-20 16:02:00,31.0,17.0,30.20,NW,315,0.0,0.0,55,0.00,,,0.00,,2013-04-20 20:02:00,
2013-04-20 16:12:00,31.0,17.0,30.21,NNW,338,0.0,0.0,56,0.00,,,0.00,,2013-04-20 20:12:00,
2013-04-20 16:21:00,31.0,17.0,30.21,NNW,338,0.0,0.0,56,0.00,,,0.00,,2013-04-20 20:21:00,
2013-04-20 16:32:00,31.0,18.0,30.22,NW,315,3.0,6.0,57,0.00,,,0.00,,2013-04-20 20:32:00,
2013-04-20 16:42:00,31.0,18.0,30.22,NW,315,3.0,6.0,57,0.00,,,0.00,,2013-04-20 20:42:00,
2013-04-20 16:52:00,31.0,18.0,30.22,NNW,338,3.0,5.0,58,0.00,,,0.00,,2013-04-20 20:52:00,
2013-04-20 17:01:00,30.0,17.0,30.23,NNW,338,5.0,8.0,59,0.00,,,0.00,,2013-04-20 21:01:00,
2013-04-20 17:12:00,30.0,17.0,30.24,WNW,292,3.0,8.0,59,0.00,,,0.00,,2013-04-20 21:12:00,
2013-04-20 17:21:00,30.0,17.0,30.24,WNW,292,3.0,8.0,59,0.00,,,0.00,,2013-04-20 21:21:00,
2013-04-20 17:33:00,30.0,17.0,30.25,WSW,248,5.0,8.0,59,0.00,,,0.00,,2013-04-20 21:33:00,
2013-04-20 17:43:00,30.0,17.0,30.25,WSW,248,5.0,8.0,59,0.00,,,0.00,,2013-04-20 21:43:00,
2013-04-20 17:53:00,30.0,18.0,30.25,North,0,2.0,7.0,60,0.00,,,0.00,,2013-04-20 21:53:00,
2013-04-20 18:02:00,30.0,18.0,30.25,NNW,338,4.0,6.0,61,0.00,,,0.00,,2013-04-20 22:02:00,
2013-04-20 18:12:00,29.0,17.0,30.27,NW,315,3.0,5.0,61,0.00,,,0.00,,2013-04-20 22:12:00,
2013-04-20 18:22:00,29.0,17.0,30.27,NW,315,3.0,5.0,61,0.00,,,0.00,,2013-04-20 22:22:00,
2013-04-20 18:32:00,29.0,18.0,30.26,North,0,5.0,6.0,62,0.00,,,0.00,,2013-04-20 22:32:00,
2013-04-20 18:42:00,29.0,18.0,30.26,North,0,5.0,6.0,62,0.00,,,0.00,,2013-04-20 22:42:00,
2013-04-20 18:53:00,29.0,17.0,30.27,NNE,22,3.0,6.0,61,0.00,,,0.00,,2013-04-20 22:53:00,
2013-04-20 19:02:00,29.0,18.0,30.27,NW,315,3.0,5.0,62,0.00,,,0.00,,2013-04-20 23:02:00,
2013-04-20 19:11:00,29.0,18.0,30.27,NW,315,3.0,5.0,62,0.00,,,0.00,,2013-04-20 23:11:00,
2013-04-20 19:22:00,28.0,16.0,30.27,NW,315,4.0,5.0,61,0.00,,,0.00,,2013-04-20 23:22:00,
2013-04-20 19:32:00,28.0,17.0,30.28,NW,315,2.0,5.0,62,0.00,,,0.00,,2013-04-20 23:32:00,
2013-04-20 19:42:00,28.0,17.0,30.28,NW,315,2.0,5.0,62,0.00,,,0.00,,2013-04-20 23:42:00,
2013-04-20 19:53:00,28.0,17.0,30.28,NNW,338,2.0,3.0,62,0.00,,,0.00,,2013-04-20 23:53:00,
2013-04-20 20:01:00,27.0,15.0,30.29,NNW,338,1.0,3.0,61,0.00,,,0.00,,2013-04-21 00:01:00,
2013-04-20 20:11:00,27.0,15.0,30.29,NNW,338,1.0,3.0,61,0.00,,,0.00,,2013-04-21 00:11:00,
2013-04-20 20:21:00,27.0,16.0,30.28,NNW,338,2.0,2.0,62,0.00,,,0.00,,2013-04-21 00:21:00,
2013-04-20 20:32:00,26.0,15.0,30.28,NW,315,0.0,2.0,63,0.00,,,0.00,,2013-04-21 00:32:00,
2013-04-20 20:42:00,26.0,15.0,30.28,NW,315,0.0,2.0,63,0.00,,,0.00,,2013-04-21 00:42:00,
2013-04-20 20:52:00,26.0,16.0,30.29,NNW,338,1.0,2.0,64,0.00,,,0.00,,2013-04-21 00:52:00,
2013-04-20 21:01:00,25.0,15.0,30.30,NW,315,0.0,1.0,64,0.00,,,0.00,,2013-04-21 01:01:00,
2013-04-20 21:11:00,25.0,15.0,30.30,NW,315,0.0,1.0,64,0.00,,,0.00,,2013-04-21 01:11:00,
2013-04-20 21:21:00,24.0,14.0,30.30,NW,315,0.0,0.0,65,0.00,,,0.00,,2013-04-21 01:21:00,
2013-04-20 21:31:00,23.0,13.0,30.31,NW,315,0.0,0.0,66,0.00,,,0.00,,2013-04-21 01:31:00,
2013-04-20 21:42:00,23.0,13.0,30.31,NW,315,0.0,0.0,66,0.00,,,0.00,,2013-04-21 01:42:00,
2013-04-20 21:52:00,22.0,12.0,30.32,NW,315,0.0,0.0,66,0.00,,,0.00,,2013-04-21 01:52:00,
2013-04-20 22:01:00,22.0,13.0,30.32,NW,315,0.0,0.0,67,0.00,,,0.00,,2013-04-21 02:01:00,
2013-04-20 22:11:00,22.0,13.0,30.32,NW,315,0.0,0.0,67,0.00,,,0.00,,2013-04-21 02:11:00,
2013-04-20 22:21:00,21.0,12.0,30.32,NW,315,0.0,0.0,68,0.00,,,0.00,,2013-04-21 02:21:00,
2013-04-20 22:32:00,20.0,11.0,30.33,NW,315,0.0,0.0,68,0.00,,,0.00,,2013-04-21 02:32:00,
2013-04-20 22:41:00,20.0,11.0,30.33,NW,315,0.0,0.0,68,0.00,,,0.00,,2013-04-21 02:41:00,
2013-04-20 22:52:00,20.0,11.0,30.34,NW,315,0.0,0.0,69,0.00,,,0.00,,2013-04-21 02:52:00,
2013-04-20 23:01:00,20.0,12.0,30.33,NW,315,0.0,0.0,70,0.00,,,0.00,,2013-04-21 03:01:00,
2013-04-20 23:11:00,20.0,12.0,30.33,NW,315,0.0,0.0,70,0.00,,,0.00,,2013-04-21 03:11:00,
2013-04-20 23:21:00,19.0,11.0,30.34,NW,315,0.0,0.0,71,0.00,,,0.00,,2013-04-21 03:21:00,
2013-04-20 23:32:00,19.0,11.0,30.34,NW,315,0.0,0.0,71,0.00,,,0.00,,2013-04-21 03:32:00,
2013-04-20 23:42:00,19.0,11.0,30.34,NW,315,0.0,0.0,71,0.00,,,0.00,,2013-04-21 03:42:00,
2013-04-20 23:52:00,18.0,11.0,30.34,NW,315,0.0,0.0,72,0.00,,,0.00,,2013-04-21 03:52:00,